Lander, WY

3:20 AM MDT on May 30, 2017 (GMT -0600)
Hunt

Weather History for KLND - October, 2013

Change the Weather History Date:

Thursday, October 17, 2013

  Actual Average Record
Temperature  
Mean Temperature 38 °F 45 °F  
Max Temperature 44 °F 58 °F 76 °F (1974)
Min Temperature 31 °F 32 °F 9 °F (1925)
Degree Days  
Heating Degree Days 27 20  
Month to date heating degree days 424 285  
Since 1 July heating degree days 616 544  
Cooling Degree Days 0 0  
Month to date cooling degree days 0 0  
Year to date cooling degree days 743 472  
Moisture  
Dew Point 30 °F    
Average Humidity 79    
Maximum Humidity 100    
Minimum Humidity 57    
Precipitation  
Precipitation 0.13 in 0.05 in 1.03 in (1994)
Month to date precipitation 2.24 0.77  
Year to date precipitation 13.88 10.70  
Snow  
Snow 0.50 in 0.40 in - ()
Month to date snowfall 14.9 4.8  
Since 1 July snowfall 19.0 7.5  
Since 1 September snowfall 19.0 7.5  
Snow Depth 0.00 in    
Sea Level Pressure  
Sea Level Pressure 30.12 in    
Wind  
Wind Speed 4 mph (NNW)    
Max Wind Speed 18 mph    
Max Gust Speed 22 mph    
Visibility 7 miles    
Events Rain , Snow    
T = Trace of Precipitation, MM = Missing Value Source: NWS Daily Summary

Daily Weather History Graph

Daily Weather History Graph

Search for Another Location

Airport or City:

Trip Planner

Search our weather history database for the weather conditions in past years. The results will help you decide how hot, cold, wet, or windy it might be!

Date:

Astronomy

Oct. 17, 2013 Rise Set
Actual Time 7:30 AM MDT 6:28 PM MDT
Civil Twilight 7:02 AM MDT 6:57 PM MDT
Nautical Twilight 6:29 AM MDT 7:30 PM MDT
Astronomical Twilight 5:56 AM MDT 8:02 PM MDT
Moon 5:45 PM MDT (10/17) 6:05 AM MDT (10/17)
Length of Visible Light 11h 54m
Length of Day
10h 57m
Waxing Gibbous, 98% of the Moon is Illuminated
Oct 17
Waxing Gibbous
Oct 18
Full
Oct 26
Last Quarter
Nov 3
New
Nov 9
First Quarter

Hourly Weather History & Observations

Time (MDT) Temp. Windchill Dew Point Humidity Pressure Visibility Wind Dir Wind Speed Gust Speed Precip Events Conditions
12:53 AM 37.9 °F 35.5 °F 25.0 °F 60% 30.08 in 10.0 mi North 3.5 mph - N/A   Clear
1:53 AM 36.0 °F 32.1 °F 27.0 °F 70% 30.09 in 10.0 mi NW 4.6 mph - N/A   Overcast
2:53 AM 35.1 °F 31.0 °F 26.1 °F 70% 30.09 in 10.0 mi NNW 4.6 mph - N/A   Clear
3:53 AM 33.1 °F 27.7 °F 27.0 °F 78% 30.08 in 10.0 mi NW 5.8 mph - N/A   Clear
4:53 AM 33.1 °F 28.7 °F 27.0 °F 78% 30.10 in 10.0 mi WNW 4.6 mph - N/A   Clear
5:53 AM 34.0 °F 31.0 °F 27.0 °F 75% 30.11 in 10.0 mi WNW 3.5 mph - N/A   Overcast
6:53 AM 35.1 °F - 28.0 °F 76% 30.12 in 10.0 mi Calm Calm - N/A   Overcast
7:53 AM 33.1 °F - 30.0 °F 89% 30.13 in 9.0 mi Calm Calm - N/A   Overcast
8:53 AM 34.0 °F - 30.0 °F 85% 30.16 in 10.0 mi Calm Calm - N/A   Overcast
9:43 AM 35.6 °F - 30.2 °F 81% 30.14 in 6.0 mi Calm Calm - N/A   Haze
9:53 AM 36.0 °F - 30.0 °F 79% 30.16 in 7.0 mi Calm Calm - N/A   Overcast
10:53 AM 37.0 °F 34.5 °F 30.0 °F 76% 30.14 in 10.0 mi Variable 3.5 mph - N/A   Overcast
11:28 AM 39.2 °F - 30.2 °F 70% 30.11 in 10.0 mi Calm Calm - N/A   Overcast
11:53 AM 39.9 °F 36.7 °F 30.0 °F 68% 30.11 in 10.0 mi Variable 4.6 mph - N/A   Overcast
12:53 PM 42.1 °F 37.7 °F 30.9 °F 65% 30.08 in 10.0 mi NE 6.9 mph - N/A   Overcast
1:03 PM 42.8 °F 40.1 °F 30.2 °F 61% 30.08 in 10.0 mi NNE 4.6 mph - N/A   Overcast
1:53 PM 42.1 °F - 28.9 °F 60% 30.06 in 10.0 mi Calm Calm - N/A   Overcast
2:00 PM 42.8 °F - 28.4 °F 57% 30.06 in 10.0 mi Calm Calm - N/A   Overcast
2:53 PM 42.1 °F 37.7 °F 30.9 °F 65% 30.05 in 10.0 mi East 6.9 mph - N/A   Mostly Cloudy
3:53 PM 41.0 °F 35.2 °F 30.9 °F 67% 30.06 in 10.0 mi NE 9.2 mph - N/A   Overcast
4:53 PM 37.0 °F 31.0 °F 33.1 °F 86% 30.08 in 5.0 mi NE 8.1 mph - 0.01 in Rain Light Rain
5:25 PM 35.6 °F 28.0 °F 33.8 °F 93% 30.06 in 5.0 mi NE 10.4 mph - 0.03 in Rain Light Rain
5:44 PM 35.6 °F 28.0 °F 33.8 °F 93% 30.07 in 2.0 mi NNE 10.4 mph - 0.05 in Snow Light Snow
5:53 PM 35.1 °F 28.6 °F 33.1 °F 92% 30.11 in 2.5 mi North 8.1 mph - 0.06 in Snow Light Snow
6:01 PM 33.8 °F 25.3 °F 33.8 °F 100% 30.08 in 4.0 mi North 11.5 mph - 0.00 in Snow Light Snow
6:34 PM 33.8 °F 23.9 °F 32.0 °F 93% 30.11 in 1.8 mi North 15.0 mph 21.9 mph 0.01 in Snow Light Snow
6:53 PM 32.0 °F 26.4 °F 30.9 °F 96% 30.17 in 2.0 mi NNW 5.8 mph - 0.04 in Snow Light Snow
7:07 PM 30.2 °F 20.8 °F 30.2 °F 100% 30.12 in 1.5 mi North 11.5 mph - 0.01 in Snow Light Snow
7:42 PM 30.2 °F 25.4 °F 30.2 °F 100% 30.13 in 1.5 mi NNW 4.6 mph - 0.02 in Snow Light Snow
7:53 PM 30.9 °F 25.2 °F 30.9 °F 100% 30.20 in 1.5 mi WNW 5.8 mph - 0.02 in Snow Light Snow
8:02 PM 30.2 °F 26.7 °F 30.2 °F 100% 30.14 in 2.0 mi West 3.5 mph - 0.00 in Snow Light Snow
8:20 PM 30.2 °F 25.4 °F 30.2 °F 100% 30.13 in 1.8 mi SSW 4.6 mph - 0.00 in Snow Light Snow
8:22 PM 30.2 °F 25.4 °F 30.2 °F 100% 30.13 in 2.0 mi SW 4.6 mph - 0.00 in Snow Light Snow
8:32 PM 30.2 °F 26.7 °F 30.2 °F 100% 30.13 in 4.0 mi WSW 3.5 mph - 0.00 in Snow Light Snow
8:53 PM 32.0 °F 27.5 °F 30.9 °F 96% 30.20 in 6.0 mi WSW 4.6 mph - 0.00 in   Overcast
9:22 PM 32.0 °F - 30.2 °F 93% 30.14 in 10.0 mi Calm Calm - N/A   Overcast
9:53 PM 32.0 °F - 30.9 °F 96% 30.19 in 10.0 mi Calm Calm - N/A   Overcast
10:53 PM 32.0 °F 28.7 °F 30.9 °F 96% 30.19 in 10.0 mi South 3.5 mph - N/A   Overcast
11:13 PM 32.0 °F 28.7 °F 30.2 °F 93% 30.15 in 10.0 mi SSE 3.5 mph - N/A   Overcast
11:53 PM 33.1 °F - 28.9 °F 85% 30.18 in 10.0 mi Calm Calm - N/A   Overcast